Flag for Vietnam Weather past 2 weeks in Ho Chi Minh, Vietnam

82 °F

Passing clouds.

Feels Like: 89 °F
Forecast: 75 / 91 °F
Wind: 7 mph from Southeast

Location: Ho Chi Minh

Current Time: Oct 13, 2015 at 8:40:57 PM

Latest Report: Oct 13, 2015 at 8:00 PM

Visibility: N/A

Pressure: 29.89 "Hg

Humidity: 79%

Dew point: 75 °F

Location of Ho Chi MinhLocation

Historic Weather in Ho Chi Minh — Graph


Ho Chi Minh temperature yesterday

Maximum temperature yesterday: 91 °F (at 12:30 PM)
Minimum temperature yesterday: 77 °F (at 12:00 AM)
Average temperature yesterday: 82 °F

Past Weeks' High & Low Weather Summary

High95 °F (Oct 13, 2:00 PM)94% (Sep 28, 10:30 PM)29.95 "Hg (Sep 28, 10:30 PM)
Low75 °F (Sep 28, 10:00 PM)44% (Oct 13, 2:00 PM)29.68 "Hg (Sep 29, 3:00 PM)
Average83 °F76%29.85 "Hg
* Reported Sep 28 7:00 PM — Oct 13 7:30 PM, Ho Chi Minh, Weather by CustomWeather, © 2015

Note: Actual official high and low records may vary slightly from our data, if they occured in-between our weather recording intervals... More about our weather records


Ho Chi Minh weather history for previous 24 hours

Time TempWeatherWind HumidityBarometerVisibility
7:30 PM
Tue, Oct 13
82 °FPassing clouds.7 mph74%29.86 "HgN/A
7:00 PM82 °FPassing clouds.5 mph74%29.83 "HgN/A
6:30 PM82 °FPassing clouds.7 mph74%29.83 "HgN/A
6:00 PM84 °FPassing clouds.8 mph70%29.83 "HgN/A
5:30 PM84 °FScattered clouds.8 mph74%29.83 "HgN/A
5:00 PM84 °FScattered clouds.10 mph74%29.83 "HgN/A
4:30 PM84 °FScattered clouds.5 mph74%29.83 "HgN/A
4:00 PM84 °FThunderstorms. Scattered clouds.6 mph74%29.83 "Hg5 mi
3:30 PM82 °FThunderstorms. Scattered clouds.8 mph84%29.80 "Hg4 mi
3:00 PM84 °FThunderstorms. Scattered clouds.14 mph70%29.83 "Hg4 mi
2:30 PM91 °FScattered clouds.2 mph56%29.80 "Hg5 mi
2:00 PM95 °FScattered clouds.2 mph44%29.83 "HgN/A
1:30 PM93 °FScattered clouds.2 mph49%29.83 "HgN/A
1:00 PM91 °FScattered clouds.5 mph59%29.83 "HgN/A
12:30 PM91 °FPartly sunny.5 mph52%29.86 "HgN/A
12:00 PM90 °FPartly sunny.3 mph59%29.89 "HgN/A
11:30 AM88 °FPartly sunny.2 mph62%29.89 "HgN/A
11:00 AM88 °FPartly sunny.5 mph66%29.92 "HgN/A
10:30 AM88 °FPartly sunny.2 mph62%29.92 "HgN/A
10:00 AM86 °FPartly sunny.6 mph70%29.95 "HgN/A
9:30 AM86 °FPartly sunny.5 mph70%29.95 "HgN/A
9:00 AM84 °FPartly sunny.5 mph74%29.95 "HgN/A
8:30 AM82 °FScattered clouds.6 mph79%29.95 "Hg5 mi
8:00 AM81 °FScattered clouds.5 mph84%29.95 "Hg3 mi
7:30 AM81 °FFog.6 mph84%29.95 "Hg2 mi
7:00 AM79 °FFog.3 mph89%29.92 "Hg1 mi
6:30 AM77 °FFog.2 mph94%29.92 "Hg1 mi
6:00 AM77 °FFog.3 mph94%29.92 "Hg1 mi
5:30 AM77 °FFog.3 mph94%29.89 "Hg1 mi
5:00 AM77 °FFog.5 mph94%29.89 "Hg1 mi
4:30 AM77 °FFog.2 mph94%29.86 "Hg2 mi
4:00 AM79 °FFog.2 mph89%29.86 "Hg2 mi
3:30 AM79 °FFog.No wind89%29.86 "Hg2 mi
3:00 AM79 °FFog.2 mph89%29.86 "Hg2 mi
2:30 AM79 °FFog.3 mph89%29.86 "Hg2 mi
2:00 AM79 °FPassing clouds.2 mph89%29.86 "Hg5 mi
1:30 AM79 °FPassing clouds.2 mph89%29.89 "Hg5 mi
1:00 AM79 °FPassing clouds.2 mph89%29.89 "Hg5 mi
12:30 AM79 °FPassing clouds.2 mph89%29.92 "Hg5 mi
12:00 AM79 °FPassing clouds.5 mph89%29.92 "HgN/A
11:30 PM
Mon, Oct 12
79 °FPassing clouds.2 mph89%29.92 "HgN/A
11:00 PM81 °FPassing clouds.3 mph84%29.92 "HgN/A
10:30 PM81 °FPassing clouds.5 mph84%29.92 "HgN/A
10:00 PM81 °FPassing clouds.2 mph84%29.95 "HgN/A
9:30 PM81 °FPassing clouds.1 mph84%29.95 "HgN/A
9:00 PM82 °FPassing clouds.5 mph79%29.92 "HgN/A
8:30 PM82 °FPassing clouds.5 mph79%29.92 "Hg3 mi
8:00 PM84 °FPassing clouds.5 mph74%29.92 "HgN/A
Weather by CustomWeather, © 2015

See weather overviewHow to use our weather pages